Flag for Germany Weather past 2 weeks in Rathenow, Brandenburg, Germany

Now
83 °F

Sunny.


Feels Like: 84 °F
Forecast: 61 / 78 °F
Wind: 6 mph from Southeast

Location: Neuruppin

Current Time: Aug 4, 2015 at 12:47:25 PM

Latest Report: Aug 4, 2015 at 12:00 PM


Visibility: 6 mi

Pressure: 29.90 "Hg

Humidity: 48%

Dew point: 62 °F

Location of RathenowLocation

Historic Weather in Rathenow — Graph

°F

Rathenow temperature yesterday

Maximum temperature yesterday: 83 °F (at 5:00 PM)
Minimum temperature yesterday: 56 °F (at 6:00 AM)
Average temperature yesterday: 71 °F

Past Weeks' High & Low Weather Summary

 TemperatureHumidityPressure
High83 °F (Aug 3, 5:00 PM)97% (Aug 1, 4:00 AM)30.14 "Hg (Aug 1, 4:00 AM)
Low46 °F (Aug 1, 4:00 AM)33% (Aug 2, 4:00 PM)29.50 "Hg (Jul 25, 3:00 PM)
Average65 °F68%29.87 "Hg
* Reported Jul 20 10:00 AM — Aug 4 10:00 AM, Rathenow, Weather by CustomWeather, © 2015

Note: Actual official high and low records may vary slightly from our data, if they occured in-between our weather recording intervals... More about our weather records

Advertising

Rathenow weather history for previous 24 hours

 ConditionsComfort  
Time TempWeatherWind HumidityBarometerVisibility
10:00 AM
Tue, Aug 4
76 °FSunny.3 mph60%29.94 "Hg6 mi
9:00 AM73 °FSunny.2 mph61%29.95 "Hg6 mi
8:00 AM68 °FSunny.3 mph69%29.96 "Hg6 mi
7:00 AM64 °FSunny.1 mph77%29.97 "Hg6 mi
6:00 AM63 °FSunny.1 mph79%29.97 "Hg6 mi
4:00 AM65 °FClear.1 mph75%29.99 "Hg6 mi
3:00 AM66 °FClear.1 mph71%30.00 "Hg6 mi
2:00 AM68 °FClear.1 mph69%30.01 "Hg6 mi
1:00 AM70 °FClear.2 mph63%30.03 "Hg6 mi
10:00 PM
Mon, Aug 3
70 °FClear.1 mph69%30.03 "Hg6 mi
9:00 PM74 °FClear.1 mph59%30.01 "Hg6 mi
8:00 PM79 °FSunny.No wind57%30.01 "Hg6 mi
7:00 PM81 °FSunny.1 mph44%30.01 "Hg6 mi
6:00 PM83 °FSunny.1 mph41%30.03 "Hg6 mi
5:00 PM83 °FSunny.2 mph42%30.04 "Hg6 mi
4:00 PM82 °FSunny.3 mph46%30.05 "Hg6 mi
3:00 PM83 °FSunny.2 mph43%30.06 "Hg6 mi
2:00 PM80 °FSunny.3 mph45%30.08 "Hg6 mi
1:00 PM80 °FSunny.3 mph49%30.09 "Hg6 mi
12:00 PM79 °FSunny.1 mph48%30.10 "Hg6 mi
Weather by CustomWeather, © 2015

See weather overviewHow to use our weather pages